Notices

What's New in latest Release from April 7th, 2021:

- Updated Glossary, including Speed of Maximum Gust, and Total Hourly Precipitation

- Updated national and regional climate services offices contacts and prices information

- Addition of station inventory lists for 1981-2010, 1971-2000, and 1961-1990 Normals.

If you haven't already, please take our survey and provide feedback about our website: https://eccc.sondage-survey.ca/f/LanguageSelection.aspx?s=442ca660-fcf1-47c0-95a9-59707d6fd709

Hourly Data Report for July 18, 2018

TORONTO CITY
ONTARIO
Current Station Operator: ECCC - MSC

43°40'00.000" N
79°24'00.000" W
112.50 m
6158355
71508
XTO

Download Data

Hourly Data (July 2018)
Hourly Data Report for July 18, 2018
TIME
LST
Temp Definition
°C
Dew Point Definition
°C
Rel Hum Definition
%
Precip. Amount Definition
mm

Wind Dir Definition
10's deg

Wind Spd Definition
km/h
Visibility Definition
km
Stn Press Definition
kPa
Hmdx Definition


Wind Chill Definition


Weather Definition


00:00 19.3 11.2 60 0.0 LegendMM LegendMM   100.15     LegendNANA
01:00 18.6 12.1 66 0.0 LegendMM LegendMM   100.18     LegendNANA
02:00 19.2 12.0 63 0.0 LegendMM LegendMM   100.21     LegendNANA
03:00 18.6 11.8 65 0.0 LegendMM LegendMM   100.27     LegendNANA
04:00 18.1 11.4 65 0.0 LegendMM LegendMM   100.34     LegendNANA
05:00 17.6 11.6 68 0.0 LegendMM LegendMM   100.41     LegendNANA
06:00 17.3 11.3 68 0.0 LegendMM LegendMM   100.46     LegendNANA
07:00 18.3 10.7 61 0.0 LegendMM LegendMM   100.51     LegendNANA
08:00 19.7 9.6 52 0.0 LegendMM LegendMM   100.54     LegendNANA
09:00 21.3 9.9 48 0.0 LegendMM LegendMM   100.52     LegendNANA
10:00 21.2 8.5 44 0.0 LegendMM LegendMM   100.56     LegendNANA
11:00 21.8 8.3 42 0.0 LegendMM LegendMM   100.56     LegendNANA
12:00 21.7 8.7 43 0.0 LegendMM LegendMM   100.54     LegendNANA
13:00 22.1 8.1 41 0.0 LegendMM LegendMM   100.49     LegendNANA
14:00 23.0 9.3 42 0.0 LegendMM LegendMM   100.48     LegendNANA
15:00 23.4 10.3 43 0.0 LegendMM LegendMM   100.42 25   LegendNANA
16:00 22.9 9.6 43 0.0 LegendMM LegendMM   100.38     LegendNANA
17:00 22.9 11.1 47 0.0 LegendMM LegendMM   100.33 25   LegendNANA
18:00 22.2 11.3 50 0.0 LegendMM LegendMM   100.32     LegendNANA
19:00 22.0 11.1 50 0.0 LegendMM LegendMM   100.32     LegendNANA
20:00 21.4 11.3 52 0.0 LegendMM LegendMM   100.31     LegendNANA
21:00 21.2 11.9 55 0.0 LegendMM LegendMM   100.36     LegendNANA
22:00 21.2 10.4 50 0.0 LegendMM LegendMM   100.40     LegendNANA
23:00 20.1 3.8 34 0.0 LegendMM LegendMM   100.41     LegendNANA

Notes on Data Quality.

Legend

  • E = Estimated
  • M = Missing
  • NA = Not Available*
  • [empty] = Indicates an unobserved value
Date modified: